Galveston, TX

7:03 AM CDT on April 26, 2017 (GMT -0500)
Scholes International At Galveston

Weather History for KGLS - December, 2012

Change the Weather History Date:

Tuesday, December 11, 2012

  Actual Average Record
Temperature  
Mean Temperature 47 °F 58 °F  
Max Temperature 52 °F 64 °F 78 °F (2007)
Min Temperature 42 °F 51 °F 30 °F (1898)
Degree Days  
Heating Degree Days 18 8  
Month to date heating degree days 25 79  
Since 1 July heating degree days 108 182  
Cooling Degree Days 0 1  
Month to date cooling degree days 50 11  
Year to date cooling degree days 3914 3300  
Moisture  
Dew Point 33 °F    
Average Humidity 60    
Maximum Humidity 70    
Minimum Humidity 50    
Precipitation  
Precipitation 0.00 in 0.11 in 3.19 in (1935)
Month to date precipitation 0.99 1.45  
Year to date precipitation 45.33 48.69  
Snow  
Snow 0.00 in - 0.00 in (2001)
Month to date snowfall 0.0  
Since 1 July snowfall 0.0  
Snow Depth 0.00 in    
Sea Level Pressure  
Sea Level Pressure 30.14 in    
Wind  
Wind Speed 12 mph (NNE)    
Max Wind Speed 23 mph    
Max Gust Speed 29 mph    
Visibility 10 miles    
Events      
T = Trace of Precipitation, MM = Missing Value Source: NWS Daily Summary

Daily Weather History Graph

Daily Weather History Graph

Search for Another Location

Airport or City:

Trip Planner

Search our weather history database for the weather conditions in past years. The results will help you decide how hot, cold, wet, or windy it might be!

Date:

Astronomy

Dec. 11, 2012 Rise Set
Actual Time 7:03 AM CST 5:22 PM CST
Civil Twilight 6:37 AM CST 5:48 PM CST
Nautical Twilight 6:08 AM CST 6:17 PM CST
Astronomical Twilight 5:39 AM CST 6:46 PM CST
Moon 5:03 AM CST (12/11) 3:58 PM CST (12/11)
Length of Visible Light 11h 10m
Length of Day
10h 18m
Waning Crescent, 4% of the Moon is Illuminated
Dec 11
Waning Crescent
Dec 13
New
Dec 19
First Quarter
Dec 28
Full
Jan 4
Last Quarter

Hourly Weather History & Observations

Time (CST) Temp. Windchill Dew Point Humidity Pressure Visibility Wind Dir Wind Speed Gust Speed Precip Events Conditions
12:52 AM 45.0 °F 36.9 °F 32.0 °F 60% 30.12 in 10.0 mi North 20.7 mph 27.6 mph N/A   Clear
1:52 AM 45.0 °F 36.9 °F 30.9 °F 58% 30.11 in 10.0 mi North 20.7 mph - N/A   Clear
2:52 AM 44.1 °F 36.2 °F 30.9 °F 60% 30.10 in 10.0 mi NNE 18.4 mph - N/A   Clear
3:52 AM 44.1 °F 36.2 °F 28.9 °F 55% 30.11 in 10.0 mi North 18.4 mph - N/A   Clear
4:52 AM 43.0 °F 35.1 °F 28.9 °F 58% 30.11 in 10.0 mi NNE 17.3 mph - N/A   Clear
5:52 AM 43.0 °F 34.8 °F 28.9 °F 58% 30.12 in 10.0 mi NNE 18.4 mph - N/A   Clear
6:52 AM 42.1 °F 34.2 °F 30.9 °F 65% 30.13 in 10.0 mi NNE 16.1 mph - N/A   Clear
7:52 AM 43.0 °F 34.8 °F 33.1 °F 68% 30.15 in 10.0 mi NNE 18.4 mph - N/A   Clear
8:52 AM 44.1 °F 36.5 °F 32.0 °F 63% 30.16 in 10.0 mi NNE 17.3 mph - N/A   Clear
9:52 AM 48.0 °F - 33.1 °F 56% 30.16 in 10.0 mi NNE 16.1 mph - N/A   Clear
10:52 AM 48.9 °F - 35.1 °F 59% 30.15 in 10.0 mi NNE 10.4 mph - N/A   Scattered Clouds
11:52 AM 48.9 °F - 33.1 °F 54% 30.15 in 10.0 mi North 13.8 mph - N/A   Scattered Clouds
12:52 PM 50.0 °F - 33.8 °F 54% 30.14 in 10.0 mi North 6.9 mph - N/A   Clear
1:52 PM 50.0 °F - 34.0 °F 54% 30.13 in 10.0 mi North 5.8 mph - N/A   Clear
2:52 PM 52.0 °F - 35.1 °F 53% 30.13 in 10.0 mi North 9.2 mph - N/A   Clear
3:52 PM 52.0 °F - 34.0 °F 50% 30.12 in 10.0 mi NNW 5.8 mph - N/A   Clear
4:52 PM 50.0 °F - 35.1 °F 57% 30.12 in 10.0 mi North 5.8 mph - N/A   Clear
5:52 PM 50.0 °F - 36.0 °F 59% 30.13 in 10.0 mi NE 3.5 mph - N/A   Partly Cloudy
6:52 PM 51.1 °F - 34.0 °F 52% 30.14 in 10.0 mi NE 8.1 mph - N/A   Clear
7:52 PM 51.1 °F - 34.0 °F 52% 30.17 in 10.0 mi NE 8.1 mph - N/A   Clear
8:52 PM 50.0 °F - 34.0 °F 54% 30.18 in 10.0 mi NE 10.4 mph - N/A   Clear
9:52 PM 51.1 °F - 34.0 °F 52% 30.20 in 10.0 mi NNE 11.5 mph - N/A   Partly Cloudy
10:52 PM 50.0 °F - 36.0 °F 59% 30.22 in 10.0 mi NNE 5.8 mph - N/A   Clear
11:52 PM 48.9 °F - 37.0 °F 64% 30.23 in 10.0 mi NE 9.2 mph - N/A   Clear